EA5LR-10 Weather Reports


time (UTC)temp
C
wind
direction
speed
KPH
gust
KPH
rain 1hr
cm
rain 24hr
cm
rain mn
cm
humidity
%
barometer
mb
20260507023920 18 60 4.8 8.0 0.00 0.00 20.98 83 1012.0
20260507023424 18 63 8.0 12.9 0.00 0.00 20.98 83 1012.1
20260507022921 18 63 9.7 11.3 0.00 0.00 20.98 83 1012.0
20260507022420 18 66 1.6 1.6 0.00 0.00 20.98 82 1012.1
20260507021920 18 81 6.4 8.0 0.00 0.00 20.98 82 1012.0
20260507021421 18 70 4.8 9.7 0.00 0.00 20.98 82 1012.2
20260507020920 18 65 1.6 3.2 0.00 0.00 20.98 81 1012.2
20260507020422 18 45 4.8 8.0 0.00 0.00 20.98 81 1012.2
20260507015920 18 58 1.6 3.2 0.00 0.00 20.98 81 1012.3
20260507015422 18 81 3.2 8.0 0.00 0.00 20.98 81 1012.4
20260507014921 18 52 3.2 4.8 0.00 0.00 20.98 81 1012.6
20260507014420 18 64 3.2 3.2 0.00 0.00 20.98 81 1012.6
20260507013920 18 76 4.8 4.8 0.00 0.00 20.98 81 1012.8
20260507013424 18 38 1.6 3.2 0.00 0.00 20.98 81 1012.7
20260507012920 18 61 3.2 4.8 0.00 0.00 20.98 81 1012.6
20260507012421 18 64 4.8 9.7 0.00 0.00 20.98 81 1012.5
20260507011920 18 59 3.2 3.2 0.00 0.00 20.98 81 1012.2
20260507011421 18 82 8.0 9.7 0.00 0.00 20.98 81 1012.3
20260507010920 18 78 3.2 4.8 0.00 0.00 20.98 81 1012.7
20260507010420 18 71 1.6 3.2 0.00 0.00 20.98 81 1012.6
20260507005920 18 64 1.6 1.6 0.00 0.00 20.98 82 1012.5
20260507005420 18 60 1.6 3.2 0.00 0.00 20.98 83 1012.6
20260507004920 18 50 1.6 1.6 0.00 0.00 20.98 83 1012.5
20260507004420 18 33 4.8 4.8 0.00 0.00 20.98 83 1012.5
20260507003920 18 55 1.6 1.6 0.00 0.00 20.98 83 1012.4
20260507003420 18 33 1.6 3.2 0.00 0.00 20.98 83 1012.5
20260507002920 18 87 1.6 3.2 0.00 0.00 20.98 82 1012.8
20260507002421 18 98 6.4 8.0 0.00 0.00 20.98 82 1012.5
20260507001920 18 40 3.2 4.8 0.00 0.00 20.98 82 1012.4
20260507001420 18 74 6.4 9.7 0.00 0.00 20.98 82 1012.4
20260507000920 18 75 6.4 11.3 0.00 0.00 20.98 82 1012.6
20260507000422 18 63 3.2 4.8 0.00 0.00 20.98 82 1012.5
20260506235920 18 77 1.6 1.6 0.00 0.00 20.98 82 1012.6
20260506235420 18 58 4.8 9.7 0.00 0.00 20.98 82 1013.0
20260506234920 18 73 1.6 1.6 0.00 0.00 20.98 82 1012.8
20260506234421 18 64 4.8 4.8 0.00 0.00 20.98 82 1013.0
20260506233420 18 70 0.0 0.0 0.00 0.00 20.98 82 1013.1
20260506232920 18 100 4.8 4.8 0.00 0.00 20.98 82 1012.9
20260506232420 18 67 1.6 3.2 0.00 0.00 20.98 82 1012.9
20260506231920 18 102 1.6 1.6 0.00 0.00 20.98 81 1013.1
20260506231420 18 95 4.8 4.8 0.00 0.00 20.98 81 1013.1
20260506230920 18 64 1.6 3.2 0.00 0.00 20.98 81 1013.0
20260506230420 18 109 4.8 8.0 0.00 0.00 20.98 81 1013.0
20260506225920 18 80 6.4 8.0 0.00 0.00 20.98 82 1013.2
20260506225420 18 87 4.8 4.8 0.00 0.00 20.98 82 1013.1
20260506224920 18 79 4.8 4.8 0.00 0.00 20.98 82 1013.1
20260506224420 18 95 1.6 3.2 0.00 0.00 20.98 82 1013.1
20260506223923 18 83 1.6 3.2 0.00 0.00 20.98 82 1013.2
20260506223420 18 74 1.6 3.2 0.00 0.00 20.98 81 1013.0
20260506222920 18 107 0.0 0.0 0.00 0.00 20.98 81 1013.0
20260506222420 18 62 1.6 1.6 0.00 0.00 20.98 82 1012.9
20260506221920 18 65 4.8 4.8 0.00 0.00 20.98 82 1012.9
20260506221420 18 97 4.8 8.0 0.00 0.00 20.98 81 1013.2
20260506220920 18 81 3.2 3.2 0.00 0.00 20.98 81 1013.2
20260506220420 18 116 1.6 1.6 0.00 0.00 20.98 82 1013.2
20260506215920 18 89 3.2 4.8 0.00 0.00 20.98 82 1013.1
20260506215420 18 119 3.2 4.8 0.00 0.00 20.98 82 1013.2
20260506214920 18 112 4.8 8.0 0.00 0.00 20.98 83 1013.5
20260506214420 18 113 3.2 3.2 0.00 0.00 20.98 82 1013.5
20260506213920 18 99 4.8 4.8 0.00 0.00 20.98 82 1013.4
20260506213420 18 85 4.8 4.8 0.00 0.00 20.98 82 1013.3
20260506212923 18 77 8.0 11.3 0.00 0.00 20.98 82 1013.5
20260506212420 18 88 1.6 3.2 0.00 0.00 20.98 82 1013.3
20260506211920 18 89 3.2 3.2 0.00 0.00 20.98 82 1013.4
20260506211420 18 124 0.0 1.6 0.00 0.00 20.98 81 1013.6
20260506210920 18 104 3.2 3.2 0.00 0.00 20.98 82 1013.6
20260506210421 18 92 3.2 3.2 0.00 0.00 20.98 82 1013.6
20260506205920 18 80 3.2 4.8 0.00 0.00 20.98 83 1013.5
20260506205420 18 117 8.0 11.3 0.00 0.00 20.98 83 1013.5
20260506204923 18 83 3.2 3.2 0.00 0.00 20.98 83 1013.3
20260506204421 18 83 3.2 3.2 0.00 0.00 20.98 84 1013.4
20260506203920 18 93 4.8 8.0 0.00 0.00 20.98 84 1013.3
20260506203420 18 130 4.8 4.8 0.00 0.00 20.98 84 1013.3
20260506202920 18 83 8.0 9.7 0.00 0.00 20.98 84 1013.3
20260506202420 18 92 1.6 1.6 0.00 0.00 20.98 84 1013.3
20260506201923 18 120 4.8 4.8 0.00 0.00 20.98 84 1013.1
20260506201420 18 115 6.4 9.7 0.00 0.00 20.98 84 1013.0
20260506200920 18 108 6.4 9.7 0.00 0.00 20.98 84 1013.0
20260506200420 18 84 6.4 9.7 0.00 0.00 20.98 84 1012.9
20260506195920 18 99 4.8 8.0 0.00 0.00 20.98 84 1012.8
20260506195420 18 96 3.2 3.2 0.00 0.00 20.98 84 1012.7
20260506194920 18 109 6.4 8.0 0.00 0.00 20.98 84 1012.6
20260506194420 18 79 4.8 9.7 0.00 0.00 20.98 84 1012.5
20260506193920 18 87 3.2 3.2 0.00 0.00 20.98 83 1012.3
20260506193420 18 74 1.6 3.2 0.00 0.00 20.98 83 1012.5
20260506192920 18 100 1.6 1.6 0.00 0.00 20.98 84 1012.5
20260506192420 18 68 3.2 4.8 0.00 0.00 20.98 84 1012.4
20260506191920 18 83 4.8 4.8 0.00 0.00 20.98 84 1012.3
20260506191421 18 66 8.0 9.7 0.00 0.00 20.98 84 1012.3
20260506190920 18 89 9.7 12.9 0.00 0.00 20.98 84 1012.3
20260506190420 18 88 8.0 9.7 0.00 0.00 20.98 83 1012.2
20260506185920 18 60 1.6 1.6 0.00 0.00 20.98 82 1012.2
20260506185420 19 85 3.2 3.2 0.00 0.00 20.98 82 1012.3
20260506184920 18 66 8.0 9.7 0.00 0.00 20.98 81 1012.0
20260506184420 18 121 11.3 14.5 0.00 0.00 20.98 80 1012.2
20260506183920 18 98 9.7 12.9 0.00 0.00 20.98 80 1012.0
20260506183420 18 67 9.7 11.3 0.00 0.00 20.98 80 1012.0
20260506182920 18 124 1.6 3.2 0.00 0.00 20.98 80 1012.0
20260506182420 18 93 14.5 16.1 0.00 0.00 20.98 80 1011.9
20260506181920 18 88 9.7 11.3 0.00 0.00 20.98 81 1011.9
20260506181420 19 95 11.3 12.9 0.00 0.00 20.98 81 1011.9
20260506180920 18 85 3.2 3.2 0.00 0.00 20.98 82 1011.9
20260506180420 19 116 8.0 9.7 0.00 0.00 20.98 82 1012.0
20260506175920 19 63 9.7 12.9 0.00 0.00 20.98 81 1012.0
20260506175420 19 92 8.0 11.3 0.00 0.00 20.98 81 1011.8